Location: Potawatomi Wildlife Park
(41.2308°N, 86.1050°W)
Time: 15:42:32
(UTC-05:00)

Hubble Space Telescope - Visible Passes

Search period start: 27 November 2014 00:00
Search period end: 07 December 2014 00:00
Orbit: 546 x 549 km, 28.5° (Epoch: 26 November)

Date Brightness Start Highest point End Pass type
(mag) Time Alt. Az. Time Alt. Az. Time Alt. Az.
27 Nov 3.1 05:38:39 14° S 05:38:56 14° S 05:41:06 10° SSE visible
28 Nov 3.2 05:31:36 13° S 05:31:36 13° S 05:33:15 10° SSE visible
29 Nov 3.4 05:24:32 11° S 05:24:32 11° S 05:25:15 10° SSE visible
